RH
7 7 7 7 7 6 6 7 6 6 6 6 6 6 6 6 6 6 6 6 7 7 7 7 7 7 8 9 9 10 10 10 11 11 12 11 11 11 10 9 8 7 8 8 7 7 7 7 7 7 7 7 7 7 7 7 6 5 7 6 4 6 12 19 26 33 40 41 37 28 18 12 9 7
8 8 8 8 8 8 8 8 8 8 8 8 8 8 8 8 8 6 6 5 5 6 5 5 6 6 5 6 6 7 8 8 9 10 10 11 11 12 12 11 10 8 8 8 8 8 7 7 7 7 8 7 7 10 10 12 17 19 19 17 15 12 7 6 7 9 14 17 17 13 10 8 6 5
9 9 9 9 9 9 9 9 9 9 9 9 9 9 9 9 10 9 8 7 5 5 5 4 5 5 5 5 5 5 5 6 7 7 8 9 9 10 11 11 11 11 10 9 9 9 8 9 8 6 8 8 7 11 14 19 30 45 53 54 56 50 32 18 11 6 6 7 7 7 6 6 4 3
10 10 9 10 9 10 10 9 10 11 11 12 12 12 12 11 11 12 12 10 7 5 7 7 5 5 5 5 4 5 4 4 5 5 6 7 7 9 9 10 11 11 11 10 10 10 12 18 16 9 7 9 8 9 14 20 31 52 70 77 83 85 73 55 39 23 14 9 7 8 6 4 5 4
15 14 12 12 13 15 14 12 13 14 14 15 16 15 16 16 15 16 18 16 10 6 7 9 7 5 6 6 5 5 5 4 4 4 4 5 5 6 7 8 10 11 11 11 11 10 12 20 23 14 8 8 9 9 12 20 33 52 74 84 90 96 95 86 73 54 37 23 14 13 11 6 4 4
25 25 22 20 23 25 24 22 22 23 24 26 26 25 26 26 24 26 30 28 21 13 9 11 11 8 9 10 7 6 6 5 5 5 4 4 4 4 5 6 7 9 11 11 12 11 10 15 23 24 18 9 9 11 9 15 30 49 70 85 92 99 100 96 93 80 62 49 37 26 18 13 8 6
35 35 33 33 35 37 36 34 33 35 36 37 37 37 38 39 36 37 42 43 36 27 18 17 17 14 16 18 14 12 12 9 6 6 5 4 4 4 4 5 5 7 9 10 12 12 11 11 16 27 31 17 8 12 11 10 21 37 56 71 81 95 102 100 99 96 89 83 69 46 29 20 14 11
42 42 41 40 42 44 43 42 42 43 44 45 45 44 44 45 44 44 47 49 47 43 34 27 25 23 25 28 25 22 22 19 14 11 8 6 5 4 4 4 4 5 6 9 11 13 14 12 9 18 37 34 15 9 13 11 11 21 40 56 68 83 96 100 100 99 100 101 92 69 46 29 19 16
47 48 47 46 47 48 47 46 46 47 48 49 50 49 48 48 48 47 49 50 51 51 45 35 32 32 33 35 35 32 32 32 26 20 17 12 8 6 5 4 4 4 5 6 9 12 14 16 11 10 30 45 31 11 10 14 11 11 24 44 59 67 76 89 100 101 98 99 98 84 59 37 24 17
53 53 52 51 52 52 51 50 50 51 52 53 53 52 51 51 53 52 51 53 56 57 55 47 41 38 38 43 44 40 41 45 39 30 25 21 18 14 9 6 4 4 5 4 6 9 11 16 17 13 18 38 43 25 9 10 14 11 13 29 47 54 59 74 91 100 98 90 87 79 57 35 24 16
55 55 55 56 56 57 56 55 55 55 55 56 55 55 55 56 57 56 56 59 63 64 62 57 52 47 46 50 52 47 46 52 50 42 36 34 32 29 22 15 8 5 5 5 4 7 9 13 18 18 14 21 37 40 21 9 13 14 11 17 29 39 53 70 83 94 101 94 82 72 54 34 23 15
59 60 60 60 59 58 58 57 58 58 60 61 60 60 63 65 65 66 68 70 73 74 73 68 64 61 57 56 58 57 53 52 51 52 54 51 44 41 37 30 20 13 9 6 5 5 8 10 12 17 16 9 19 37 31 13 12 17 15 14 17 22 38 59 72 80 91 94 86 76 63 42 23 13
60 59 58 58 58 58 59 60 62 64 69 73 72 71 75 76 74 76 78 79 81 82 80 76 71 71 67 61 62 63 60 57 55 58 63 60 52 50 50 45 35 25 17 11 8 5 7 11 10 12 16 11 15 33 33 15 11 18 21 20 19 17 23 42 61 68 71 74 70 61 49 33 20 14
59 58 58 59 60 61 62 64 68 71 75 80 81 82 85 84 82 83 83 84 86 85 83 79 76 75 70 64 64 64 61 60 59 60 60 58 56 56 57 53 43 36 31 25 18 11 8 11 13 13 18 20 24 33 26 13 12 17 22 27 26 20 18 24 37 51 60 58 46 34 26 19 15 14
64 65 65 66 67 67 69 71 74 76 78 82 86 88 90 90 90 90 88 86 86 85 83 78 75 72 66 62 62 61 61 62 59 59 61 60 59 57 57 55 47 43 43 40 38 31 20 19 21 21 23 23 21 23 17 10 11 12 19 31 35 33 31 25 23 36 48 43 28 20 19 16 13 11
72 72 71 72 73 74 75 75 75 76 77 81 86 89 91 94 95 96 94 91 88 86 83 77 73 71 67 63 62 62 65 64 61 61 62 61 59 57 57 54 48 47 49 54 65 62 46 40 38 35 38 33 19 16 16 13 12 12 21 34 40 43 45 39 39 48 49 36 23 20 19 15 12 10
78 78 78 79 78 78 78 76 74 74 75 77 81 85 89 92 93 93 96 98 98 95 92 85 79 77 76 72 65 62 65 65 63 62 61 58 56 54 55 53 49 49 54 70 92 89 69 66 64 62 73 66 41 29 24 19 17 16 20 30 36 40 42 42 49 58 53 39 25 19 16 13 12 11
83 84 85 84 81 79 78 75 74 75 75 77 79 82 86 87 87 89 92 94 94 97 101 100 94 92 92 83 69 65 74 79 73 65 61 60 59 56 53 51 50 50 53 74 102 99 82 85 89 85 86 75 62 63 60 48 36 24 24 32 34 34 39 43 48 49 45 37 24 15 13 11 10 10
87 88 89 88 84 80 75 73 75 77 77 79 79 79 81 81 82 83 81 76 75 82 92 98 99 99 98 93 85 83 92 95 87 78 74 75 75 69 60 51 48 47 48 69 99 99 85 92 102 98 90 82 82 92 93 81 62 48 52 55 45 42 47 46 46 44 37 31 23 14 12 10 8 9
89 89 90 88 84 81 76 74 75 78 84 89 88 84 79 76 76 74 69 67 71 76 79 81 84 85 87 95 99 98 101 101 97 95 95 94 93 87 71 53 46 46 45 61 91 99 86 90 102 100 97 98 97 93 93 95 85 76 83 82 67 65 67 55 48 44 36 29 23 16 13 11 9 9
89 89 88 87 85 81 76 74 75 81 92 99 99 96 90 84 79 71 65 65 68 72 78 83 88 90 94 100 102 100 102 103 101 102 101 99 102 99 86 68 56 53 48 54 82 98 89 88 100 102 97 100 100 94 95 102 99 93 97 98 86 76 67 58 53 48 40 33 24 16 14 12 10 11
85 84 83 84 84 79 75 77 81 88 98 102 101 102 100 96 93 86 79 77 72 66 66 73 83 91 98 101 100 98 99 99 99 102 102 99 100 101 100 91 76 64 53 50 73 96 92 87 98 103 99 98 100 100 99 100 102 98 93 96 90 65 43 44 51 48 42 35 25 19 17 14 12 13
77 77 78 77 78 78 79 81 87 94 101 103 103 102 101 102 101 93 83 76 68 58 51 55 67 75 79 85 91 94 94 92 93 99 103 104 102 100 101 98 84 68 53 48 68 93 98 96 99 101 101 99 99 101 100 99 103 98 82 78 77 54 30 32 42 43 40 34 27 23 20 17 17 16
73 74 74 73 76 81 83 85 92 98 99 100 102 101 101 101 95 86 79 73 67 65 66 70 74 75 78 86 94 97 97 95 92 90 92 99 103 104 102 94 79 66 54 52 73 96 100 100 102 100 100 100 99 99 100 100 103 97 77 60 53 44 35 35 38 40 38 33 29 28 24 21 22 20
81 78 74 76 83 89 89 90 95 97 96 98 100 100 100 98 94 93 93 91 90 91 92 88 84 84 90 95 96 97 100 103 102 97 93 93 95 100 101 92 78 66 56 60 83 102 101 99 102 101 99 100 100 100 102 102 97 86 71 56 49 50 53 51 45 42 39 34 31 29 26 28 36 38
87 84 84 89 93 94 92 92 95 97 98 99 98 98 100 99 97 100 101 100 101 98 92 90 92 95 99 99 98 98 97 98 101 102 100 96 91 91 91 86 77 64 56 70 95 103 99 99 101 100 100 101 101 101 101 95 82 72 73 76 76 74 72 66 57 48 40 34 30 30 33 43 55 60
90 94 99 96 91 89 90 92 96 99 101 100 98 99 100 93 85 83 85 90 96 94 91 94 98 96 92 89 89 89 88 90 95 98 100 99 97 97 93 89 83 67 59 81 104 102 98 102 100 98 101 101 100 101 96 80 69 73 88 99 99 91 80 69 58 49 44 41 42 52 63 70 74 76
101 103 98 87 83 88 93 95 99 101 101 100 100 101 102 97 87 79 75 75 80 84 85 88 87 78 72 73 79 85 92 98 100 100 101 99 99 103 103 98 91 73 66 89 107 101 99 102 97 96 101 100 100 101 87 69 69 86 101 105 100 90 78 70 67 68 71 74 77 85 92 93 94 95
105 102 93 89 92 99 102 102 101 100 100 101 100 99 103 103 100 97 92 88 89 90 89 91 88 75 67 78 93 99 100 101 100 99 102 99 98 104 103 93 81 69 71 92 104 100 100 99 91 92 100 102 103 96 76 66 79 99 105 100 91 83 80 84 90 93 96 98 98 99 100 99 99 98
105 102 97 98 101 102 101 95 88 86 92 99 99 100 103 101 100 102 100 98 101 99 96 100 95 78 75 92 103 101 99 101 100 100 101 99 99 103 100 88 75 69 77 94 103 102 104 98 87 90 99 100 94 80 68 74 92 104 104 97 91 92 97 100 101 100 100 101 100 99 97 93 88 84
102 102 101 101 100 96 91 87 85 88 95 99 99 100 101 100 100 101 100 102 102 95 98 107 95 76 81 97 100 98 101 102 99 99 102 100 98 101 102 92 80 75 82 95 102 103 103 96 88 88 90 84 73 68 76 91 100 102 103 101 97 100 103 101 100 102 102 99 96 93 88 82 79 75
96 102 103 100 95 89 87 91 97 99 99 100 100 100 101 100 100 101 102 104 97 80 82 94 89 78 82 90 92 97 100 98 98 100 102 101 101 102 102 94 85 84 91 99 102 99 95 89 83 80 77 72 72 81 93 101 101 99 102 102 100 100 100 100 102 103 100 98 96 93 90 89 89 83
94 99 101 95 87 84 87 94 100 100 100 100 100 100 100 100 103 103 100 98 91 79 75 78 80 83 84 82 89 98 94 92 98 100 100 104 104 99 95 93 92 95 98 97 93 87 81 78 76 77 80 84 90 97 100 100 100 100 101 100 100 100 100 101 103 101 100 100 99 98 98 99 100 96
95 96 97 91 82 78 82 90 97 101 102 101 99 101 101 100 100 96 89 82 78 79 85 89 92 94 86 79 90 101 96 93 98 99 100 104 99 91 92 95 95 96 93 86 81 78 78 82 86 89 94 97 99 99 100 101 101 101 101 101 100 100 100 101 101 100 100 101 100 100 101 100 100 100
92 95 96 91 83 80 82 87 92 97 99 95 91 92 97 102 100 91 84 79 71 66 74 88 98 102 97 91 95 101 100 99 99 98 100 101 96 92 95 94 91 90 86 81 81 84 89 95 100 102 101 100 99 100 100 100 99 100 101 101 99 100 100 100 100 100 100 100 101 100 100 100 101 100
87 89 91 88 84 82 85 90 94 95 93 87 80 76 81 94 102 97 89 87 81 71 67 74 83 92 98 100 99 99 99 100 99 99 100 101 100 99 97 92 89 88 86 85 89 96 100 99 98 100 101 100 100 101 99 98 99 100 101 100 99 100 100 100 100 101 100 100 101 99 100 101 99 95
88 90 90 89 86 84 84 88 94 96 93 85 78 72 71 78 91 99 98 94 90 83 79 80 83 86 90 95 99 101 101 100 99 100 101 101 101 101 97 94 92 92 94 98 99 102 104 97 89 93 101 102 98 97 98 101 101 100 100 101 100 100 100 100 100 101 101 100 100 100 100 101 99 97
95 96 93 91 91 89 86 87 92 97 98 91 81 74 74 77 83 92 100 101 97 92 88 87 90 92 92 93 96 99 100 100 100 101 101 100 101 101 100 98 97 98 101 101 100 102 102 95 89 95 103 100 93 93 99 103 101 100 100 101 99 99 100 100 100 100 101 100 100 100 100 100 101 100
100 99 96 93 93 91 89 91 94 97 102 100 88 76 76 82 87 92 97 101 102 100 95 91 93 97 100 101 100 99 101 102 102 101 102 101 99 100 102 101 102 103 102 100 100 101 98 94 96 100 98 91 90 96 102 102 100 101 101 100 99 100 100 100 100 100 100 100 100 100 100 101 102 100
101 99 98 97 96 94 93 94 96 98 102 103 95 84 79 81 87 94 99 101 101 102 100 98 100 104 104 104 103 99 97 99 100 98 101 102 99 99 103 103 102 104 105 104 102 98 91 92 98 98 92 91 97 101 101 100 100 101 100 99 100 101 100 100 101 100 99 101 101 101 102 101 98 95
100 100 100 99 99 98 97 96 97 102 104 102 97 91 86 85 87 91 97 100 100 101 101 100 103 106 104 103 103 98 94 95 95 91 91 95 95 95 100 103 103 104 103 100 98 94 91 96 102 100 97 100 102 100 99 100 101 100 100 100 101 100 100 101 100 99 100 102 101 99 100 99 95 92
100 100 100 100 100 100 99 98 97 100 102 100 96 92 92 93 93 94 99 100 99 99 101 102 102 102 101 101 103 99 94 95 97 92 90 92 93 94 99 102 103 102 97 94 95 97 98 102 105 103 101 101 100 99 100 101 99 99 100 100 100 100 100 100 100 101 103 103 100 97 98 99 98 98
100 100 100 100 100 100 100 99 97 97 96 96 97 97 98 100 101 101 102 100 96 96 101 103 102 100 100 102 103 100 96 96 99 99 98 98 97 97 101 102 102 101 99 98 99 100 101 103 103 101 100 100 100 100 100 100 100 101 101 100 100 100 100 100 101 102 102 103 102 102 102 102 102 102
100 100 100 100 100 100 101 101 99 97 95 96 100 101 101 101 101 101 100 99 97 98 101 102 101 99 100 101 101 101 100 99 99 100 101 101 100 100 102 103 101 101 101 102 101 100 101 102 101 100 100 100 100 100 100 100 100 101 100 100 100 100 100 101 102 101 101 103 104 103 103 103 102 101
101 100 100 101 101 99 100 102 101 97 96 99 102 102 101 100 100 100 101 101 100 101 101 100 100 100 100 100 100 100 100 99 99 100 100 100 101 101 101 101 100 100 100 100 100 100 101 101 100 100 100 100 100 100 100 100 100 100 100 99 99 100 101 103 103 102 102 103 102 101 101 102 101 99
Wind_Speed
53 54 54 56 57 57 58 59 59 60 61 61 63 64 65 67 71 75 78 78 76 74 73 73 72 70 69 70 71 71 71 71 71 71 70 70 70 69 69 70 71 71 71 71 72 72 72 70 67 65 67 68 66 63 62 62 62 60 59 60 58 56 55 56 55 54 54 53 52 53 53 53 54 52
52 52 53 53 55 56 56 57 57 58 59 59 60 61 62 63 66 71 75 78 77 75 73 73 72 71 70 70 71 72 72 72 71 72 72 71 71 70 70 70 70 71 70 71 70 70 71 71 68 65 65 66 66 63 62 61 59 57 57 57 57 57 58 59 58 59 59 59 58 58 57 57 57 56
51 52 52 52 53 54 55 56 56 56 56 57 58 59 60 60 62 65 69 75 77 74 73 73 71 71 71 70 70 72 72 72 72 73 73 73 73 72 71 70 70 70 71 71 70 70 70 70 69 67 64 64 64 62 61 58 54 50 50 50 50 52 56 57 58 60 61 62 62 61 60 60 59 58
51 52 53 53 53 53 54 55 55 55 55 55 56 57 58 59 60 61 64 70 74 72 70 71 70 70 70 70 70 71 72 72 72 73 74 75 75 74 73 72 71 70 71 71 71 69 67 66 68 68 65 63 62 61 59 57 53 48 47 48 47 46 50 53 54 58 61 63 63 63 63 63 62 61
51 52 53 53 53 53 54 54 54 54 54 55 55 55 56 57 58 58 61 65 70 70 68 67 69 69 68 70 70 70 71 71 71 72 73 74 74 75 75 74 72 71 71 72 72 71 68 65 66 68 68 64 61 61 60 56 53 49 47 49 48 46 49 51 52 55 59 61 63 63 63 64 64 63
50 52 53 53 52 52 53 53 53 54 54 54 54 54 55 56 56 56 58 61 65 68 66 64 66 66 66 67 68 68 69 70 70 71 72 72 73 74 75 75 74 72 71 71 72 72 71 68 66 66 67 66 62 60 60 57 54 51 50 50 50 49 51 52 52 53 56 59 60 62 63 63 63 63
49 50 51 51 51 51 51 52 52 52 53 53 53 54 53 54 55 54 56 59 61 64 64 62 62 63 63 64 65 65 66 67 68 69 70 70 71 72 73 74 75 74 72 71 71 72 73 72 69 66 64 66 64 60 59 59 56 54 54 54 54 53 53 53 52 51 52 54 57 60 63 63 63 62
49 49 50 50 50 50 51 51 51 52 52 53 53 54 53 53 54 53 54 56 58 61 62 60 59 59 60 60 61 61 62 63 64 66 67 67 69 70 71 72 74 74 73 71 70 72 73 73 73 68 62 64 66 62 59 59 59 57 56 57 58 57 57 56 55 54 54 54 57 60 63 64 64 62
48 49 49 50 50 51 52 52 52 52 52 53 53 53 53 53 53 53 54 55 56 57 59 59 57 56 57 58 57 57 58 59 60 62 63 64 66 67 68 69 71 72 73 72 71 71 72 73 74 71 64 61 64 64 60 58 59 58 57 57 58 60 61 59 58 59 60 61 62 65 67 66 65 65
48 49 50 50 51 52 52 52 52 52 52 53 53 53 53 53 53 53 53 53 53 54 56 56 55 54 55 56 55 54 54 56 58 59 60 60 60 62 64 66 67 68 70 71 72 71 71 72 73 72 68 62 61 63 62 59 59 59 57 56 58 60 62 62 61 61 64 66 67 70 72 69 67 66
48 49 50 51 51 51 52 52 51 51 52 52 52 51 51 51 51 51 51 50 51 51 52 52 53 53 52 53 53 51 50 53 54 55 56 57 56 56 59 62 62 63 65 68 69 69 68 69 70 72 72 67 61 61 62 60 59 59 57 57 58 61 61 62 63 63 64 68 70 72 73 70 67 64
48 49 49 50 50 50 50 50 50 49 49 49 49 48 47 47 47 47 47 47 46 47 48 49 49 49 49 50 50 48 48 50 51 50 51 53 54 53 54 57 57 58 60 62 65 66 65 66 68 69 71 70 65 62 62 61 59 59 58 57 58 61 62 63 65 66 67 68 70 71 72 69 64 60
47 48 48 48 48 47 47 46 45 44 42 42 43 43 43 43 43 43 43 42 42 42 43 44 44 44 46 47 46 45 44 46 47 45 46 50 52 51 52 54 54 53 55 57 61 63 62 62 64 66 68 68 65 64 66 64 60 58 58 56 56 59 63 64 65 67 69 71 72 72 71 67 62 58
48 47 46 45 44 43 42 40 38 36 35 35 36 37 38 39 39 39 39 39 38 38 39 40 40 41 43 43 42 42 42 42 43 44 44 47 48 48 50 53 51 49 49 52 55 59 59 58 60 62 63 64 64 65 67 66 61 57 56 56 56 57 61 64 65 66 68 70 72 70 67 64 60 58
48 47 45 43 41 39 37 35 33 32 32 31 31 33 35 36 37 37 37 36 34 34 36 38 37 38 41 41 39 40 39 38 40 41 41 43 45 46 48 51 50 46 45 47 49 51 53 53 56 59 60 62 64 65 65 64 61 58 56 56 56 54 56 60 62 63 65 67 68 66 64 62 60 58
46 45 43 40 38 36 34 33 32 31 30 29 29 31 33 35 35 34 35 34 34 34 35 37 37 37 39 39 38 37 36 35 37 38 38 39 42 44 45 48 49 44 42 44 44 44 44 45 50 55 56 58 60 61 60 60 60 58 55 56 56 53 52 54 55 56 59 63 64 63 61 60 59 58
44 42 40 38 36 35 34 33 32 31 30 28 28 29 32 34 34 32 32 32 34 36 37 38 38 36 36 37 37 34 33 35 36 37 38 39 40 43 43 46 47 43 40 41 42 41 39 38 41 49 53 53 53 54 55 56 57 57 54 53 54 54 53 52 51 51 54 58 60 61 60 59 58 57
40 38 37 37 36 34 33 32 31 31 30 29 27 28 30 33 32 31 30 31 32 34 36 39 40 37 35 37 37 34 34 37 37 37 38 38 39 41 41 42 44 45 42 42 43 42 39 35 36 43 49 50 48 49 50 51 53 53 50 48 51 53 53 52 52 52 53 55 57 58 57 56 56 55
37 36 36 36 36 35 32 30 30 30 30 29 28 27 29 31 31 31 31 30 30 31 33 37 39 38 37 38 39 37 37 39 38 37 36 35 35 38 40 41 43 46 44 43 45 45 40 36 35 38 42 45 45 46 47 47 47 46 43 43 48 51 51 52 52 53 54 55 55 55 54 53 53 53
35 35 36 36 36 35 32 28 28 28 29 30 30 29 28 30 32 33 31 30 31 32 33 35 36 37 38 38 40 39 39 40 40 38 37 36 35 37 41 41 41 44 44 44 47 48 42 37 37 38 38 38 40 42 43 42 41 40 37 40 46 49 50 51 51 51 52 53 53 53 51 51 51 51
35 35 35 36 36 34 32 29 27 26 28 30 30 31 31 32 34 35 32 31 32 33 35 37 38 39 39 40 40 39 39 41 41 41 44 43 41 42 45 45 40 39 42 44 48 50 45 38 37 39 37 35 35 38 41 41 38 37 38 40 44 46 47 48 49 49 50 50 51 50 49 49 49 50
35 34 34 34 34 34 31 29 27 27 28 30 31 33 35 36 38 38 36 36 36 34 34 34 35 37 37 39 39 38 38 39 40 45 49 48 47 48 49 49 43 38 39 43 47 51 48 40 39 39 36 34 35 38 42 41 39 39 41 43 44 44 44 46 46 47 47 48 48 48 46 46 47 49
34 33 32 32 32 32 31 29 27 26 27 30 33 34 37 39 41 41 39 39 38 35 32 31 31 30 30 31 34 35 36 37 39 44 48 49 50 51 51 50 47 42 39 42 47 51 46 39 38 38 35 35 36 37 40 40 39 41 42 42 44 44 43 44 45 45 46 46 47 46 45 45 46 48
33 32 32 32 31 31 30 29 27 26 26 28 32 35 38 41 42 39 38 37 35 35 36 35 34 33 32 33 34 35 37 39 40 43 47 50 51 51 51 52 52 47 38 40 47 49 41 35 37 38 34 33 35 36 39 40 41 41 39 38 42 43 43 44 44 44 44 45 45 44 44 44 45 46
33 33 33 33 33 31 30 28 28 27 26 27 30 33 35 36 36 36 37 37 37 39 40 39 38 38 39 39 38 38 40 41 41 43 47 51 53 54 55 56 55 49 37 41 48 46 36 30 33 33 31 33 36 38 41 41 40 38 35 35 40 42 41 41 41 41 42 43 43 43 42 42 42 42
33 34 34 34 31 29 27 27 26 26 25 25 26 25 26 27 30 33 36 37 38 39 38 38 38 39 41 42 41 41 40 39 39 42 46 49 52 55 58 59 58 49 35 43 48 43 34 29 28 27 29 34 37 40 42 41 38 35 32 33 36 36 35 35 36 37 39 40 40 40 40 40 40 41
32 32 31 29 26 24 24 23 21 21 20 21 21 19 19 20 23 27 29 30 33 35 35 35 35 35 36 35 33 32 29 28 30 32 35 38 39 44 50 55 56 47 35 45 47 39 34 33 30 27 29 32 35 39 42 40 35 31 30 31 31 31 31 31 32 34 35 37 37 37 38 39 39 39
29 27 24 23 21 20 20 19 18 17 17 17 18 18 18 18 18 20 22 24 28 30 31 30 27 25 23 21 19 18 18 20 22 23 24 26 27 30 36 42 48 44 39 47 46 38 34 35 32 28 27 30 34 38 40 37 31 28 29 30 30 29 28 29 30 33 34 36 35 35 36 37 36 36
22 19 19 19 19 18 18 17 15 14 13 15 17 18 19 19 19 20 21 23 26 28 28 28 24 19 16 14 15 16 17 18 20 20 21 22 22 24 27 34 39 40 42 47 43 35 32 33 32 30 28 31 34 37 36 32 28 26 27 27 27 26 26 28 29 32 33 34 33 33 34 34 33 34
15 15 16 17 16 15 14 13 12 12 13 17 19 19 19 19 20 20 21 22 25 27 29 28 23 15 13 14 15 16 15 15 15 16 19 20 18 19 23 29 33 36 43 46 39 32 31 31 31 30 30 32 34 34 32 30 28 26 25 24 23 22 24 27 28 29 30 31 31 30 30 30 31 32
13 13 13 13 13 12 10 10 12 15 18 19 19 20 21 19 17 17 17 19 21 23 25 25 19 14 12 13 14 13 14 13 11 11 15 19 18 16 19 25 30 35 42 42 34 30 31 31 31 32 32 33 33 31 30 30 28 25 22 22 22 21 21 24 25 26 27 27 26 26 26 26 27 29
11 11 11 12 12 10 8 9 12 16 17 17 17 19 19 16 13 13 13 13 14 15 14 12 11 12 11 11 11 11 11 10 7 8 11 14 17 17 19 24 29 34 38 36 30 30 32 32 33 33 32 32 31 29 29 30 26 23 22 23 23 20 18 20 22 23 23 22 20 20 20 21 22 24
12 12 12 12 12 9 7 7 9 12 13 12 13 15 16 12 10 11 11 9 8 9 7 4 7 8 8 9 8 8 7 4 3 5 8 7 9 15 21 25 29 31 32 31 30 31 32 31 30 29 28 27 28 28 29 27 24 22 23 24 23 20 18 18 19 19 19 18 17 17 18 20 21 22
15 14 13 13 12 10 7 6 7 9 10 9 8 11 14 11 8 8 8 9 8 7 5 3 4 5 6 7 6 6 5 3 1 2 4 5 5 17 24 25 24 25 26 27 27 27 27 25 24 24 25 26 28 28 27 24 22 23 25 25 23 19 17 17 18 19 20 20 19 20 21 22 21 21
16 15 15 14 13 11 9 8 8 8 10 10 9 10 12 11 9 7 6 6 7 8 7 5 3 3 4 6 5 5 4 3 2 2 1 1 8 18 22 19 19 21 22 23 23 23 23 23 24 25 26 27 27 26 24 23 23 24 25 26 25 23 20 17 16 20 23 23 23 23 22 21 22 23
17 15 15 15 15 13 11 10 10 10 11 12 12 12 12 10 9 8 8 8 6 6 6 6 5 3 3 4 5 5 4 4 3 4 5 5 9 16 19 19 19 21 21 22 22 22 22 23 24 26 26 27 26 24 22 22 22 24 25 26 26 25 22 19 18 21 23 24 23 21 21 22 23 22
20 18 16 16 16 15 14 12 12 12 12 13 14 14 14 12 10 9 9 8 7 6 6 6 5 3 2 3 5 7 8 8 8 8 8 8 9 12 16 19 21 21 22 23 23 23 23 24 25 25 25 26 25 23 21 22 23 24 26 28 27 24 22 22 22 23 23 22 20 20 21 22 21 19
23 21 18 17 16 17 16 15 14 13 13 14 14 15 15 14 12 11 10 9 8 7 6 6 5 4 3 3 4 6 8 11 12 12 12 12 11 11 13 17 19 20 21 22 23 24 25 26 25 23 23 24 23 20 20 22 23 26 28 29 25 22 22 22 24 24 23 21 19 20 21 20 19 19
23 21 19 17 16 16 17 17 16 14 14 15 15 15 15 15 14 13 12 11 9 8 7 6 6 6 6 6 5 6 8 11 14 15 15 16 14 13 13 14 15 17 19 20 22 24 25 25 22 21 21 21 18 17 18 19 22 27 29 26 22 22 23 21 23 25 25 22 21 21 20 18 17 17
22 20 18 16 16 16 17 17 16 15 15 15 16 16 15 14 14 14 14 13 11 10 8 7 6 6 7 8 8 8 9 11 15 17 18 18 16 14 14 14 15 15 16 18 21 23 22 20 18 19 20 18 16 18 20 22 26 30 28 23 22 24 23 20 21 23 23 21 20 19 18 15 14 14
19 20 19 17 15 15 15 16 16 15 15 14 15 16 16 15 14 14 15 14 13 12 10 8 8 9 9 9 10 9 9 10 14 17 19 20 19 17 15 15 16 15 16 17 19 19 17 16 18 20 20 19 21 24 26 26 28 29 27 23 24 24 21 19 19 20 19 18 18 17 16 15 14 13
19 19 19 18 16 14 13 15 15 15 15 15 15 15 16 16 14 13 13 14 14 12 11 9 10 10 10 11 11 10 9 9 12 16 18 20 20 18 16 16 15 15 14 15 16 16 17 19 21 22 23 24 25 27 27 27 28 30 28 25 25 23 19 18 19 19 18 18 17 16 15 14 13 13
19 20 19 18 17 15 12 12 13 14 14 14 14 15 16 15 12 11 11 12 11 10 9 9 10 11 12 12 11 9 8 7 10 14 17 19 18 16 14 14 14 14 15 15 16 18 20 21 22 24 27 27 27 27 27 27 28 29 28 27 27 24 21 19 19 19 18 17 15 14 13 13 13 12
19 19 18 17 16 15 12 9 10 11 12 12 13 13 13 10 9 9 8 7 7 7 8 9 10 10 9 7 6 5 5 8 12 15 17 17 16 15 12 10 11 13 15 15 16 19 20 20 23 27 28 26 25 26 26 26 27 27 27 26 26 23 20 20 19 18 17 16 15 13 12 12 12 12
19 19 18 16 15 13 11 8 6 7 8 9 10 10 9 7 7 6 4 5 5 5 6 6 4 2 3 2 2 3 4 7 11 15 17 16 15 14 11 8 9 14 17 18 18 19 20 22 27 30 28 25 25 25 24 25 26 27 25 24 23 22 21 21 19 18 16 15 14 13 12 12 12 11
Wind_Direction
277 276 275 274 274 273 272 271 271 271 271 271 271 271 271 272 272 270 269 267 266 266 266 266 266 264 262 261 260 260 260 260 261 261 260 260 260 260 259 258 256 256 256 256 255 255 253 251 250 249 249 250 251 251 250 249 248 248 247 247 247 245 246 247 247 247 248 248 249 251 252 254 255 255
278 276 275 274 274 273 272 271 270 269 269 268 268 269 269 270 270 271 271 269 267 266 265 265 265 264 263 262 261 259 259 259 259 260 260 259 259 259 259 259 258 257 257 257 257 256 255 254 252 250 249 248 249 250 250 249 249 248 247 247 247 245 243 244 246 248 249 250 250 251 253 254 255 256
280 278 277 275 274 274 273 272 271 270 269 268 267 266 266 266 267 268 270 270 268 268 267 266 265 265 264 263 261 259 258 257 256 257 257 257 257 257 257 257 257 257 257 256 256 257 257 256 254 252 250 248 247 248 248 248 248 247 246 245 246 246 244 242 241 243 246 248 250 251 252 253 254 254
281 280 279 277 276 275 274 273 273 272 271 270 269 268 267 266 266 266 268 269 268 268 269 268 267 265 265 264 263 261 259 257 256 255 255 255 255 255 255 255 255 255 256 255 255 255 256 257 255 253 251 249 247 246 246 245 245 245 245 243 242 244 246 244 241 240 241 244 246 248 249 250 251 252
283 282 281 279 279 278 277 276 275 274 273 272 271 270 269 268 268 267 267 268 268 267 267 269 268 267 266 265 264 263 261 259 257 256 254 254 254 254 254 254 253 253 254 254 254 253 253 255 256 254 251 249 246 245 244 242 241 241 241 241 240 241 244 245 244 243 242 242 243 244 246 248 249 251
283 282 281 281 281 280 279 278 277 276 276 275 273 272 272 271 270 269 269 269 269 267 266 267 267 267 267 267 265 264 263 261 259 258 256 254 253 252 252 252 252 251 252 252 252 252 251 251 253 255 253 249 246 245 244 241 238 237 236 236 235 236 240 242 243 245 246 246 246 245 244 245 247 248
283 283 282 282 282 281 280 279 278 277 276 276 275 273 273 272 271 270 270 270 270 270 267 266 266 266 266 267 266 266 265 264 262 260 258 256 254 252 251 251 251 250 250 250 251 251 250 249 249 252 253 251 247 244 243 241 237 234 233 233 231 231 234 237 238 242 245 245 246 247 246 245 245 245
285 284 283 283 282 281 279 278 278 277 277 276 276 275 274 274 273 271 271 271 271 272 270 268 267 267 267 267 266 266 266 266 264 263 262 259 256 254 251 250 249 249 248 248 249 249 250 249 248 248 252 253 248 243 242 241 237 233 232 232 231 229 231 233 234 236 239 240 243 245 246 246 246 245
286 285 283 282 282 281 280 280 279 279 279 278 278 277 276 276 275 273 272 271 271 271 271 270 268 267 267 267 266 266 267 266 264 264 263 262 260 257 254 251 249 247 247 247 247 247 248 249 248 246 247 251 250 244 240 241 240 234 232 232 231 230 231 232 232 234 236 237 240 243 244 245 246 247
286 285 284 283 282 282 282 281 281 281 281 280 280 279 278 276 276 274 273 272 271 271 271 271 269 267 266 267 266 265 266 267 265 264 263 262 262 260 258 255 251 248 247 246 246 246 246 247 249 248 246 248 251 248 242 240 242 238 232 231 230 231 231 231 232 234 236 237 239 241 244 245 246 248
286 285 284 284 284 284 284 284 284 283 282 281 280 279 278 277 275 274 273 272 271 271 271 270 269 268 266 266 267 265 264 265 266 266 265 264 261 260 260 258 254 251 249 246 245 245 245 245 246 248 248 246 249 251 245 240 242 241 236 231 230 230 230 230 231 233 236 239 241 243 246 247 248 250
285 285 285 285 285 285 285 284 284 283 282 281 280 278 277 275 274 273 272 271 270 271 271 271 270 270 268 267 268 268 265 264 265 267 268 266 262 260 259 258 255 252 250 248 245 243 243 243 243 245 247 246 245 248 246 241 240 242 239 234 230 230 229 229 230 232 234 237 240 243 246 249 250 251
287 287 287 286 286 285 284 283 282 281 281 280 279 277 276 274 273 272 271 270 269 269 270 270 270 271 270 269 270 271 269 268 267 268 269 267 264 262 260 257 255 253 251 249 247 244 241 241 241 241 243 245 243 243 245 242 239 240 240 237 231 229 229 229 230 232 234 237 239 242 246 249 250 250
293 293 291 290 289 287 285 285 284 283 280 279 277 276 275 274 272 270 269 268 267 268 268 269 270 272 272 272 273 273 272 271 270 270 270 269 267 265 263 259 255 253 252 250 248 246 242 240 240 239 239 240 239 240 243 242 239 238 239 238 234 230 230 230 231 232 235 238 241 244 246 248 249 248
297 296 294 293 291 291 291 290 287 285 282 281 279 275 273 271 269 268 267 265 264 264 266 269 271 272 273 272 272 273 274 273 272 272 272 271 269 267 265 262 257 252 250 249 247 246 244 241 239 237 236 237 238 239 242 242 240 238 237 237 236 233 231 231 232 233 236 239 242 244 246 247 247 247
297 296 295 295 295 295 295 292 290 288 286 284 279 273 269 266 264 263 264 265 265 266 269 272 272 273 275 275 275 276 279 279 277 275 274 272 270 268 267 263 258 252 247 244 243 242 240 239 239 238 236 237 238 239 241 242 241 238 236 235 234 233 232 231 232 234 236 239 241 242 244 245 246 247
295 296 296 297 296 296 296 295 295 293 290 287 279 269 262 259 256 254 255 260 266 271 274 276 276 277 279 280 280 283 287 286 283 280 278 276 273 270 268 264 259 252 244 237 235 235 231 229 235 237 234 235 238 239 240 241 241 239 236 234 233 232 232 232 232 234 236 238 239 240 242 243 245 246
296 297 297 297 297 296 296 298 299 298 295 290 281 268 258 253 249 246 247 253 259 265 270 274 277 280 282 283 286 289 289 286 284 284 283 279 276 273 270 265 258 250 241 230 229 231 224 218 228 234 234 234 236 238 240 240 240 240 237 234 232 230 230 231 231 233 236 238 239 240 240 242 243 244
298 298 297 296 296 296 298 300 302 301 298 292 284 272 258 249 246 246 250 254 257 260 263 268 274 278 280 283 287 289 288 285 285 287 286 281 279 277 272 265 255 248 240 227 226 230 222 215 224 229 229 233 234 235 239 243 243 240 236 231 228 227 227 228 230 232 235 237 240 240 241 241 242 243
299 298 296 296 297 298 301 304 304 302 297 293 289 281 269 258 254 254 255 258 260 263 266 269 273 277 278 280 283 286 288 286 286 287 283 278 278 278 275 268 257 248 240 226 223 228 223 217 225 225 221 229 236 236 239 244 242 236 230 227 224 223 225 227 228 231 234 236 238 239 240 241 242 242
299 298 298 299 301 302 305 308 308 303 296 292 290 287 281 273 267 265 264 263 264 266 268 270 271 273 274 274 275 277 280 281 280 279 275 272 273 275 276 273 265 252 241 225 220 225 225 221 225 223 219 226 236 236 236 239 238 230 224 223 223 222 224 226 227 230 233 235 238 239 240 241 241 242
300 301 303 304 305 307 311 312 308 302 296 291 288 285 283 280 276 274 272 271 271 270 268 265 264 265 266 267 267 268 269 269 269 270 269 267 266 267 269 271 270 260 240 221 215 221 225 223 223 222 222 228 233 233 235 240 242 235 226 221 221 223 225 226 227 229 231 235 238 239 240 242 242 243
303 305 307 308 308 310 312 311 307 301 294 290 287 285 283 280 277 275 274 274 274 273 269 267 266 265 266 268 267 268 269 266 262 263 265 265 263 262 261 263 266 260 237 213 210 218 222 221 223 224 226 231 232 232 236 239 240 238 232 224 222 226 228 226 225 227 230 233 236 238 240 241 242 243
307 309 309 310 311 312 313 313 310 304 295 288 283 280 278 277 277 279 280 279 278 276 274 274 275 276 280 281 275 269 269 268 263 259 259 260 261 262 260 258 259 257 235 205 204 215 219 219 222 222 225 232 233 234 237 238 238 241 242 233 225 226 226 224 224 226 228 231 234 236 239 240 241 243
309 310 310 312 314 314 314 312 308 302 296 289 284 280 279 281 284 284 283 280 279 277 275 275 278 281 283 282 276 269 267 268 266 261 257 256 255 257 258 256 256 254 231 197 198 211 215 214 218 221 225 231 233 235 237 238 241 248 248 236 225 223 223 223 224 226 227 230 233 234 236 238 239 240
306 307 308 310 311 309 307 305 303 302 299 294 292 291 290 287 281 276 275 274 274 273 272 275 280 282 281 277 272 269 269 268 266 263 261 259 256 254 254 253 254 252 223 190 194 207 208 204 209 220 231 234 235 237 237 238 243 246 238 227 222 222 223 224 226 227 228 230 232 233 234 234 234 235
302 302 303 304 305 303 304 306 307 308 306 302 305 308 304 291 278 272 271 271 270 271 272 275 278 279 279 276 271 268 267 265 264 263 264 265 262 257 253 249 251 249 217 188 193 204 203 201 205 215 229 234 236 236 235 238 241 235 224 221 223 226 227 227 228 228 228 229 230 230 231 232 233 234
296 297 297 300 306 309 311 312 311 310 308 308 313 315 310 304 294 282 277 273 271 271 272 272 275 279 280 275 266 264 265 264 264 263 265 269 271 265 255 244 242 238 210 190 193 200 200 202 207 211 221 229 230 230 233 238 235 223 219 224 227 228 229 227 226 225 225 227 228 226 228 231 232 233
291 295 298 303 309 312 310 306 303 305 309 315 320 318 309 302 297 290 285 282 278 276 274 274 275 277 276 268 266 273 275 273 271 267 263 264 268 270 256 238 232 225 204 191 194 199 199 202 207 211 218 223 225 229 235 237 228 218 223 230 229 228 228 224 223 224 224 226 226 226 227 229 231 232
288 293 298 301 305 305 301 300 304 314 323 325 325 323 316 308 301 297 294 290 285 281 280 278 274 268 265 268 271 278 284 285 278 266 255 248 253 266 255 232 222 213 198 191 193 199 203 207 210 214 219 223 227 232 235 232 223 220 226 231 230 229 227 223 222 224 224 225 226 226 227 228 228 229
285 290 294 295 295 296 300 312 324 329 331 327 323 320 317 312 307 304 302 299 294 288 282 276 264 248 253 267 274 285 298 302 293 276 259 242 234 245 244 225 211 201 192 189 193 200 205 210 215 219 223 227 230 231 230 227 225 223 225 229 229 227 224 223 221 219 219 222 223 223 223 224 225 227
290 295 294 289 286 290 302 320 330 331 327 319 314 315 314 310 312 317 317 313 309 303 294 273 241 230 245 263 276 292 303 305 307 306 285 250 226 226 226 210 194 187 186 188 194 200 204 210 216 220 225 228 227 226 226 227 226 224 223 222 221 219 218 218 217 213 213 213 209 207 210 215 220 224
302 297 292 283 276 278 291 311 324 327 322 311 306 312 316 315 319 331 341 347 335 319 304 246 211 226 247 256 272 295 298 290 313 333 321 294 232 208 199 187 179 178 184 190 197 202 207 214 219 222 226 226 224 226 229 228 223 223 223 215 210 212 211 205 200 196 192 188 185 189 199 207 212 214
309 295 289 281 273 269 277 297 314 321 324 321 310 311 319 322 321 333 0 22 19 359 331 279 237 241 247 246 262 295 294 280 306 347 341 334 203 182 177 173 175 182 190 198 204 210 215 220 226 230 230 228 227 228 230 227 222 222 218 207 197 193 186 178 177 177 176 176 180 190 201 209 212 210
313 294 284 279 274 270 274 291 305 313 321 326 322 317 320 321 315 318 338 2 19 25 17 353 323 290 264 252 264 295 295 285 288 268 255 201 177 179 181 187 194 199 206 211 216 222 228 232 235 235 231 230 229 227 227 225 220 215 208 197 185 173 165 166 178 183 180 182 189 195 201 207 210 210
323 307 288 277 273 271 273 283 296 303 308 316 320 320 318 313 304 303 310 322 339 1 13 12 7 356 317 278 274 286 284 268 258 247 234 213 192 192 199 209 214 216 220 224 226 230 234 234 231 228 228 230 231 229 226 221 213 206 199 186 174 169 168 174 184 188 185 188 196 201 203 206 212 216
328 321 305 287 276 273 273 276 284 292 299 306 312 315 313 307 297 292 295 305 316 327 341 353 353 345 327 280 264 261 254 248 247 245 237 223 209 205 207 212 215 218 221 224 227 230 231 228 224 223 226 231 233 229 222 211 203 197 187 174 167 171 177 180 183 184 185 191 200 205 206 209 215 219
325 322 312 298 283 274 274 276 280 285 292 298 303 307 307 302 294 285 282 286 296 306 315 321 320 313 297 267 247 242 243 245 245 246 245 238 227 219 214 214 215 216 217 219 223 224 225 226 226 225 226 230 229 220 209 203 196 185 172 163 164 175 183 187 191 190 189 194 200 202 204 207 210 213
322 320 313 302 289 277 273 275 278 282 286 292 296 297 296 294 289 281 274 272 276 284 289 294 302 307 300 284 262 244 243 242 238 238 244 245 239 229 221 221 221 219 218 220 221 223 224 227 227 225 223 221 214 200 193 190 181 169 162 160 167 176 181 190 199 198 195 197 201 202 203 205 205 208
325 325 320 311 299 285 274 271 274 278 281 287 293 295 292 289 285 280 273 264 259 263 273 280 287 295 293 282 266 250 243 243 240 235 235 239 241 235 228 229 231 228 226 225 224 225 228 227 221 216 211 202 187 178 175 171 167 164 163 167 174 179 184 193 198 196 193 194 198 200 202 203 203 202
328 329 327 323 314 299 282 272 270 273 277 283 291 296 297 294 289 282 276 267 258 254 259 271 280 284 285 279 270 257 244 240 239 235 230 232 237 236 233 234 235 233 227 222 219 222 221 210 201 198 190 178 171 171 169 167 166 166 169 177 184 186 189 194 194 191 189 190 194 197 198 200 202 200
333 332 330 328 323 313 294 278 269 268 274 283 290 296 299 297 291 282 276 271 263 254 255 267 278 282 285 282 272 260 250 239 231 227 224 225 228 231 232 232 230 224 214 205 200 196 191 188 187 182 171 165 166 169 169 168 168 166 170 182 190 189 189 192 189 184 183 186 191 193 194 195 196 196
338 337 335 331 328 323 310 288 271 266 271 280 289 296 299 295 287 280 277 273 263 253 257 272 281 284 287 283 270 258 249 230 211 206 207 210 215 219 220 220 216 207 195 186 175 170 174 179 177 169 163 163 166 168 168 168 168 167 172 184 192 192 189 185 178 174 177 181 182 181 182 184 184 184
341 342 341 337 333 330 323 305 281 270 272 280 291 300 300 293 286 282 276 264 250 248 267 283 289 290 289 276 254 234 216 201 193 190 191 196 201 200 197 200 201 192 181 170 161 161 169 173 169 163 161 162 164 166 166 168 171 175 181 188 191 187 179 172 167 168 172 173 169 169 172 174 173 172
344 347 347 343 339 338 336 324 298 280 280 287 298 306 306 298 291 282 254 225 231 259 287 297 305 345 24 60 100 106 140 174 185 187 187 186 185 181 175 171 172 171 167 161 158 162 169 169 164 161 159 159 161 162 162 166 174 180 184 185 182 175 169 168 169 170 167 163 161 162 162 160 159 158